Simultaneous Nadir Overpasses (SNOs) Predictions

Prediction of SNOs between GOES-15 and METOP-A Satellite Orbit:

Table of predicted SNOs for the next 14.0 days since TLE Epoch: 8/19/2016
Index Date Time (GOES-15) GOES-15 Lat,Lon METOP-A Lat,Lon Distance(km) Time Diff (sec)
1 08/19/2016 18:31:46 -0.13,-134.96 0.12,-136.01 120.63 80
2 08/20/2016 18:13:47 -0.11,-135.00 -1.02,-131.02 453.39 80
3 08/22/2016 06:30:06 0.15,-135.00 -0.01,-135.62 70.75 80
4 08/24/2016 18:28:18 -0.16,-135.13 -0.12,-135.19 7.39 80
5 08/27/2016 06:29:17 0.17,-135.16 0.25,-134.80 41.22 80
6 08/28/2016 18:45:30 -0.20,-135.24 0.71,-139.37 470.01 80
7 08/29/2016 18:27:29 -0.18,-135.27 -0.38,-134.37 102.74 80
8 08/31/2016 06:43:49 0.21,-135.27 -0.63,-138.96 421.74 80
9 09/01/2016 06:25:49
